When you browse on this site, cookies collect data to enhance your experience and personalize the content and advertising you see.
Visit our Privacy Policy to learn more. By continuing to use the site, you agree to this use of cookies and data.
  • In France
  • List of Countries
  • For 7 days
  • Water Temperature
  • Weather Map
  • Weather Widgets
  • user-avatar
    Login

    Hourly Weather La Massana

    Today, 19 February, Wednesday

    Time Temperature Precipitation Wind Pressure Humidity
    00:00 -4°C° 0 mm 2 mps 615 mmHg 87%
    01:00 -5°C° 0 mm 2 mps 615 mmHg 84%
    02:00 -5°C° 0 mm 2 mps 614 mmHg 81%
    03:00 -5°C° 0 mm 2 mps 614 mmHg 78%
    04:00 -5°C° 0 mm 2 mps 614 mmHg 75%
    05:00 -5°C° 0 mm 2 mps 614 mmHg 71%
    06:00 -5°C° 0 mm 2 mps 614 mmHg 66%
    07:00 -4°C° 0 mm 2 mps 615 mmHg 63%
    08:00 -3°C° 0 mm 2 mps 616 mmHg 61%
    09:00 -1°C° 0 mm 2 mps 616 mmHg 58%
    10:00 +2°C° 0 mm 2 mps 617 mmHg 49%
    11:00 +4°C° 0 mm 2 mps 618 mmHg 41%
    12:00 +7°C° 0 mm 1 mps 619 mmHg 32%
    13:00 +7°C° 0 mm 1 mps 618 mmHg 36%
    14:00 +7°C° 0 mm 1 mps 617 mmHg 39%
    15:00 +7°C° 0 mm 1 mps 617 mmHg 43%
    16:00 +4°C° 0 mm 1 mps 616 mmHg 55%
    17:00 +2°C° 0 mm 1 mps 614 mmHg 68%
    18:00 0°C° 0 mm 1 mps 613 mmHg 80%
    19:00 0°C° 0 mm 1 mps 613 mmHg 74%
    20:00 0°C° 0 mm 1 mps 614 mmHg 68%
    21:00 0°C° 0 mm 1 mps 614 mmHg 62%
    22:00 0°C° 0 mm 1 mps 613 mmHg 57%
    23:00 0°C° 0 mm 1 mps 613 mmHg 53%

    Tomorrow, 20 February, Thursday

    Time Temperature Precipitation Wind Pressure Humidity
    00:00 0°C° 0 mm 1 mps 613 mmHg 49%
    01:00 0°C° 0 mm 1 mps 613 mmHg 46%
    02:00 0°C° 0 mm 1 mps 612 mmHg 42%
    03:00 +1°C° 0 mm 1 mps 612 mmHg 39%
    04:00 +1°C° 0 mm 1 mps 612 mmHg 36%
    05:00 +1°C° 0 mm 1 mps 612 mmHg 34%
    06:00 +1°C° 0 mm 1 mps 612 mmHg 31%
    07:00 +3°C° 0 mm 1 mps 613 mmHg 31%
    08:00 +5°C° 0 mm 1 mps 614 mmHg 30%
    09:00 +6°C° 0 mm 0 mps 614 mmHg 29%
    10:00 +8°C° 0 mm 0 mps 615 mmHg 28%
    11:00 +10°C° 0 mm 1 mps 615 mmHg 27%
    12:00 +11°C° 0 mm 1 mps 616 mmHg 26%
    13:00 +11°C° 0 mm 1 mps 615 mmHg 29%
    14:00 +10°C° 0 mm 1 mps 615 mmHg 33%
    15:00 +10°C° 0 mm 1 mps 615 mmHg 36%
    16:00 +7°C° 0 mm 1 mps 614 mmHg 46%
    17:00 +5°C° 0 mm 1 mps 613 mmHg 56%
    18:00 +2°C° 0 mm 1 mps 612 mmHg 67%
    19:00 +2°C° 0 mm 1 mps 613 mmHg 65%
    20:00 +2°C° 0 mm 1 mps 613 mmHg 64%
    21:00 +1°C° 0 mm 1 mps 613 mmHg 62%
    22:00 +1°C° 0 mm 1 mps 613 mmHg 66%
    23:00 +1°C° 0 mm 1 mps 614 mmHg 70%

    Day after tomorrow, 21 February, Friday

    Time Temperature Precipitation Wind Pressure Humidity
    00:00 0°C° 0 mm 1 mps 614 mmHg 74%
    01:00 0°C° 0 mm 1 mps 614 mmHg 75%
    02:00 0°C° 0 mm 1 mps 614 mmHg 76%
    03:00 0°C° 0 mm 1 mps 614 mmHg 76%
    04:00 0°C° 0 mm 1 mps 614 mmHg 74%
    05:00 0°C° 0 mm 1 mps 614 mmHg 72%
    06:00 0°C° 0 mm 1 mps 614 mmHg 70%
    13:00 +8°C° 0 mm 1 mps 618 mmHg 46%
    14:00 +9°C° 0 mm 1 mps 618 mmHg 46%
    15:00 +9°C° 0 mm 1 mps 617 mmHg 48%
    16:00 +6°C° 0 mm 1 mps 616 mmHg 59%
    17:00 +4°C° 0 mm 1 mps 615 mmHg 71%
    18:00 +1°C° 0 mm 0 mps 615 mmHg 82%
    19:00 +2°C° 0 mm 1 mps 615 mmHg 74%
    20:00 +2°C° 0 mm 1 mps 615 mmHg 66%
    21:00 +2°C° 0 mm 1 mps 615 mmHg 59%
    22:00 +1°C° 0 mm 1 mps 615 mmHg 54%
    23:00 +1°C° 0 mm 1 mps 615 mmHg 49%

    22 February, Saturday

    Time Temperature Precipitation Wind Pressure Humidity
    00:00 +1°C° 0 mm 1 mps 615 mmHg 44%
    01:00 +1°C° 0 mm 1 mps 615 mmHg 38%
    02:00 +2°C° 0 mm 1 mps 615 mmHg 33%
    03:00 +2°C° 0 mm 1 mps 615 mmHg 28%
    04:00 +2°C° 0 mm 1 mps 615 mmHg 27%
    05:00 +2°C° 0 mm 1 mps 615 mmHg 26%
    06:00 +2°C° 0 mm 1 mps 616 mmHg 25%
    07:00 +4°C° 0 mm 1 mps 617 mmHg 26%
    08:00 +5°C° 0 mm 1 mps 618 mmHg 27%
    09:00 +7°C° 0 mm 1 mps 619 mmHg 27%
    10:00 +9°C° 0 mm 1 mps 620 mmHg 27%
    11:00 +10°C° 0 mm 1 mps 620 mmHg 27%
    12:00 +11°C° 0 mm 1 mps 621 mmHg 26%
    13:00 +11°C° 0 mm 1 mps 621 mmHg 30%
    14:00 +11°C° 0 mm 1 mps 620 mmHg 34%
    15:00 +11°C° 0 mm 1 mps 620 mmHg 37%
    16:00 +8°C° 0 mm 1 mps 619 mmHg 48%
    17:00 +5°C° 0 mm 0 mps 618 mmHg 59%
    18:00 +3°C° 0 mm 0 mps 617 mmHg 70%
    19:00 +3°C° 0 mm 0 mps 617 mmHg 66%
    20:00 +3°C° 0 mm 1 mps 617 mmHg 62%
    21:00 +3°C° 0 mm 1 mps 618 mmHg 58%
    22:00 +3°C° 0 mm 1 mps 618 mmHg 56%
    23:00 +3°C° 0 mm 1 mps 618 mmHg 53%

    23 February, Sunday

    Time Temperature Precipitation Wind Pressure Humidity
    00:00 +3°C° 0 mm 1 mps 618 mmHg 50%
    01:00 +3°C° 0 mm 1 mps 617 mmHg 50%
    02:00 +3°C° 0 mm 1 mps 617 mmHg 49%
    03:00 +3°C° 0 mm 1 mps 617 mmHg 49%
    04:00 +3°C° 0 mm 1 mps 617 mmHg 48%
    05:00 +3°C° 0 mm 1 mps 617 mmHg 48%
    06:00 +3°C° 0 mm 1 mps 617 mmHg 47%
    07:00 +5°C° 0 mm 1 mps 618 mmHg 45%
    08:00 +6°C° 0 mm 0 mps 619 mmHg 43%
    09:00 +8°C° 0 mm 0 mps 620 mmHg 41%
    10:00 +10°C° 0 mm 1 mps 620 mmHg 39%
    11:00 +12°C° 0 mm 1 mps 620 mmHg 37%
    12:00 +13°C° 0 mm 1 mps 621 mmHg 35%
    13:00 +13°C° 0 mm 1 mps 620 mmHg 38%
    14:00 +12°C° 0 mm 1 mps 620 mmHg 40%
    15:00 +12°C° 0 mm 1 mps 619 mmHg 43%
    16:00 +10°C° 0 mm 1 mps 619 mmHg 54%
    17:00 +7°C° 0 mm 1 mps 618 mmHg 64%
    18:00 +5°C° 0 mm 1 mps 617 mmHg 74%
    19:00 +5°C° 0 mm 1 mps 617 mmHg 71%
    20:00 +4°C° 0 mm 1 mps 617 mmHg 67%
    21:00 +3°C° 0 mm 2 mps 617 mmHg 64%
    22:00 +2°C° 0 mm 2 mps 617 mmHg 58%
    23:00 +2°C° 0 mm 2 mps 617 mmHg 53%

    24 February, Monday

    Time Temperature Precipitation Wind Pressure Humidity
    00:00 +2°C° 0 mm 2 mps 617 mmHg 47%
    01:00 +3°C° 0 mm 1 mps 617 mmHg 47%
    02:00 +3°C° 0 mm 1 mps 616 mmHg 46%
    03:00 +3°C° 0 mm 1 mps 616 mmHg 45%
    04:00 +3°C° 0 mm 1 mps 616 mmHg 46%
    05:00 +2°C° 0 mm 1 mps 616 mmHg 46%
    06:00 +2°C° 0 mm 1 mps 616 mmHg 46%
    07:00 +4°C° 0 mm 1 mps 617 mmHg 43%
    08:00 +6°C° 0 mm 1 mps 618 mmHg 40%
    09:00 +7°C° 0 mm 0 mps 619 mmHg 36%
    10:00 +10°C° 0 mm 1 mps 619 mmHg 35%
    11:00 +11°C° 0 mm 1 mps 619 mmHg 34%
    12:00 +12°C° 0 mm 1 mps 619 mmHg 33%
    13:00 +12°C° 0 mm 1 mps 619 mmHg 34%
    14:00 +12°C° 0 mm 1 mps 618 mmHg 36%
    15:00 +12°C° 0 mm 1 mps 618 mmHg 38%
    16:00 +9°C° 0 mm 1 mps 616 mmHg 47%
    17:00 +7°C° 0 mm 1 mps 615 mmHg 56%
    18:00 +4°C° 0 mm 0 mps 614 mmHg 65%
    19:00 +4°C° 0 mm 0 mps 614 mmHg 63%
    20:00 +4°C° 0 mm 1 mps 614 mmHg 62%
    21:00 +4°C° 0 mm 1 mps 614 mmHg 60%
    22:00 +4°C° 0 mm 1 mps 614 mmHg 59%
    23:00 +4°C° 0 mm 1 mps 614 mmHg 58%
    Show more